User: anonymous   Login
Location: Unspecified
(0.0000°N, 0.0000°E)
Time: 02:00:50
(UTC+00:00)
Language:

STARLINK-32005 - Orbit

View from above orbital plane
View from above orbital plane
View from above satellite
View from above satellite

Ground track
Ground track

The orbit is defined by the following mean orbital elements,

1 60034U          26145.23329457 +.00000000 +00000-0 +43376-4 0 00006
2 60034  53.1603  80.0172 0001225  86.2906 273.8235 15.30198354    01
Epoch (UTC): 25 May 2026 05:35:56
Eccentricity: 0.0001225
inclination: 53.1603°
perigee height: 474 km
apogee height: 476 km
right ascension of ascending node: 80.0172°
argument of perigee: 86.2906°
revolutions per day: 15.30198354
mean anomaly at epoch: 273.8235°

The dashed part of the orbit path shows where the satellite is in the earth's shadow,  

DLR